Date,TemperatureHighF,TemperatureAvgF,TemperatureLowF,DewpointHighF,DewpointAvgF,DewpointLowF,HumidityHigh,HumidityAvg,HumidityLow,PressureMaxIn,PressureMinIn,WindSpeedMaxMPH,WindSpeedAvgMPH,GustSpeedMaxMPH,PrecipitationSumIn
2013-1-1,32.5,22.4,12.1,31.6,19.5,10.2,97,89,76,30.32,30.10,3,1,14,0.01
2013-1-2,39.6,23.1,8.4,23.1,14.3,6.6,93,72,37,30.32,30.20,3,0,14,0.08
2013-1-3,42.1,28.5,17.5,30.8,22.8,15.7,94,80,54,30.44,30.29,3,0,14,0.09
2013-1-4,45.4,32.1,20.9,27.3,24.0,19.3,95,74,46,30.47,30.33,5,1,14,0.04
2013-1-5,41.7,36.9,30.2,33.6,29.3,22.5,83,74,65,30.34,30.14,6,2,14,0.00
2013-1-6,40.3,29.8,18.2,30.5,23.0,15.8,92,77,49,30.39,30.17,4,1,14,0.00
2013-1-7,52.8,34.6,17.6,26.8,22.5,15.4,93,64,34,30.40,30.14,5,1,14,0.00
2013-1-8,57.4,44.9,26.5,45.8,29.8,21.5,88,58,27,30.20,30.04,5,2,14,0.00
2013-1-9,56.0,46.7,38.2,46.4,39.4,31.8,98,78,48,30.41,30.17,4,1,14,0.01
2013-1-10,55.0,47.3,40.0,52.7,44.5,31.8,98,90,60,30.37,29.78,4,2,14,0.25
2013-1-11,66.0,55.9,48.5,49.3,47.6,46.3,97,75,52,29.83,29.69,9,4,15,0.00
2013-1-12,60.0,41.9,26.3,49.2,33.6,23.3,94,74,45,30.01,29.74,5,2,14,0.18
2013-1-13,26.7,20.7,11.1,24.3,17.7,9.2,93,88,81,30.42,29.95,2,0,14,0.00
2013-1-14,28.3,16.7,6.1,22.0,13.5,4.0,93,88,74,30.55,30.41,2,0,14,0.00
2013-1-15,26.1,19.1,9.6,22.2,16.6,7.7,95,90,83,30.45,30.22,2,0,14,0.00
2013-1-16,40.1,25.6,9.3,27.5,19.9,7.4,95,80,59,30.24,30.10,5,1,14,0.02
2013-1-17,45.0,31.7,21.6,31.7,25.3,19.6,97,79,49,30.51,30.18,5,1,14,0.07
2013-1-18,57.6,42.0,21.5,30.8,26.3,19.8,96,58,32,30.51,30.15,8,3,16,0.02
2013-1-19,63.9,50.9,43.0,37.9,34.0,28.0,72,53,35,30.19,29.98,7,3,14,0.00
2013-1-20,45.9,35.6,24.0,31.8,19.6,14.3,73,53,32,30.34,30.19,4,1,14,0.00
2013-1-21,30.0,22.8,14.3,15.5,10.3,4.9,83,59,45,30.44,30.33,3,1,14,0.00
2013-1-22,33.6,22.9,16.6,12.6,7.5,4.5,62,52,39,30.46,30.31,3,1,14,0.00
2013-1-23,55.0,32.2,12.8,32.0,20.4,8.3,90,64,39,30.39,30.17,3,1,14,0.00
2013-1-24,32.7,26.1,15.7,17.3,11.1,6.7,73,54,39,30.52,30.20,6,3,14,0.00
2013-1-25,48.0,35.7,26.8,25.3,22.1,12.2,80,59,37,30.28,30.14,4,1,14,0.00
2013-1-26,56.9,40.6,25.7,29.0,25.1,20.8,89,58,32,30.34,30.19,5,1,14,0.00
2013-1-27,58.6,49.2,38.3,54.3,43.7,25.8,89,82,50,30.19,29.88,7,4,14,0.11
2013-1-28,75.2,67.1,58.4,62.3,59.1,54.1,88,76,59,29.91,29.74,9,6,17,0.00
2013-1-29,69.8,60.8,50.5,61.4,56.7,50.0,98,87,71,29.75,29.41,9,4,18,1.89
2013-1-30,50.7,34.0,26.0,50.0,31.0,19.8,98,89,77,30.01,29.37,5,2,14,0.09
2013-1-31,36.4,23.8,10.6,26.6,16.3,1.8,89,73,52,30.49,30.00,5,2,14,0.00
2013-2-1,31.0,19.9,5.0,16.2,8.2,1.5,88,62,41,30.56,30.24,4,1,14,0.00
2013-2-2,45.9,37.0,27.5,33.8,25.4,15.4,90,63,48,30.25,30.08,4,1,14,0.00
2013-2-3,49.0,42.0,34.7,33.6,25.3,18.5,77,53,30,30.27,29.92,7,2,14,0.00
2013-2-4,62.4,48.4,26.5,37.0,30.6,23.7,90,52,37,29.96,29.79,7,3,14,0.00
2013-2-5,62.3,41.5,20.2,37.5,29.4,18.8,96,67,32,30.13,29.93,4,1,14,0.00
2013-2-6,61.8,47.0,33.6,36.6,33.0,27.9,83,60,36,30.17,29.98,7,2,14,0.00
2013-2-7,51.0,46.3,35.3,49.6,41.7,33.2,95,84,66,30.13,29.85,5,1,14,0.12
2013-2-8,38.0,33.3,28.4,32.6,29.5,25.8,93,86,78,30.36,30.11,5,2,14,0.00
2013-2-9,46.4,36.9,28.8,35.7,30.5,26.0,92,79,52,30.32,29.91,6,3,14,0.10
2013-2-10,62.5,49.9,38.1,52.6,38.3,26.3,94,69,30,29.93,29.55,10,5,23,0.19
2013-2-11,52.0,39.3,24.7,29.2,26.2,21.4,88,61,35,30.17,29.89,5,1,14,0.00
2013-2-12,44.2,34.0,21.8,34.2,27.6,20.1,96,79,52,30.18,29.98,3,0,14,0.02
2013-2-13,47.2,38.4,31.2,37.1,33.9,30.1,97,84,64,30.00,29.88,6,2,14,0.05
2013-2-14,55.9,44.3,34.3,35.9,31.7,28.5,83,63,40,30.12,29.88,3,1,14,0.00
2013-2-15,41.9,34.3,21.8,28.3,18.3,10.7,77,54,29,30.32,30.11,6,2,14,0.00
2013-2-16,38.9,29.8,16.4,20.9,17.0,11.5,85,60,39,30.34,30.17,4,1,14,0.00
2013-2-17,60.7,46.7,31.2,33.3,26.5,18.9,63,46,32,30.18,29.81,5,2,14,0.00
2013-2-18,57.9,46.7,29.4,49.8,38.0,21.9,92,72,54,30.04,29.51,10,4,18,0.32
2013-2-19,39.5,30.4,23.3,22.4,14.8,7.7,78,55,28,30.38,30.02,5,2,14,0.00
2013-2-20,30.7,25.0,19.9,15.2,11.3,7.0,69,56,46,30.41,30.24,4,2,14,0.00
2013-2-21,32.7,27.2,23.2,31.7,23.0,15.1,96,85,60,30.25,29.79,7,3,15,0.00
2013-2-22,33.1,28.2,21.6,32.1,23.8,17.8,97,84,67,30.12,29.81,5,2,14,0.00
2013-2-23,39.0,26.8,14.3,23.9,20.0,12.5,94,77,50,30.12,30.01,3,0,14,0.26
2013-2-24,51.6,36.7,18.1,32.4,26.2,16.4,95,69,46,30.09,29.96,6,1,14,0.11
2013-2-25,43.9,35.5,29.1,32.8,28.8,25.0,97,78,53,30.00,29.51,10,3,16,0.29
2013-2-26,34.3,32.8,32.0,33.1,31.8,31.0,97,96,94,29.81,29.36,5,1,14,0.22
2013-2-27,34.5,31.9,30.2,31.6,29.6,27.1,96,91,85,30.01,29.80,3,1,14,0.07
2013-2-28,34.7,31.1,29.2,28.5,26.6,25.0,86,83,77,30.19,30.00,3,1,14,0.00
2013-3-1,31.6,29.3,26.8,26.4,25.0,23.0,89,84,72,30.28,30.15,4,1,14,0.00
2013-3-2,35.2,26.3,15.0,23.4,18.8,12.8,91,74,53,30.36,30.26,4,2,14,0.01
2013-3-3,46.7,32.8,15.1,27.6,21.5,12.9,94,66,44,30.27,29.91,4,1,14,0.00
2013-3-4,59.6,46.4,37.2,42.9,35.3,26.6,86,66,52,29.92,29.65,6,2,14,0.01
2013-3-5,43.7,35.1,29.9,33.1,25.6,20.9,90,69,54,30.30,29.81,6,4,15,0.00
2013-3-6,40.8,31.2,25.0,26.8,21.8,19.6,83,68,52,30.44,30.30,5,2,14,0.00
2013-3-7,57.9,41.4,23.9,31.8,26.2,19.5,84,58,29,30.36,30.19,5,2,14,0.00
2013-3-8,56.9,47.2,35.3,37.3,34.0,29.5,84,62,45,30.30,30.08,6,2,14,0.02
2013-3-9,69.5,55.8,42.3,52.1,44.0,35.2,91,68,36,30.10,29.69,9,4,16,0.85
2013-3-10,57.8,49.0,33.2,55.2,46.4,31.1,96,91,70,29.83,29.58,6,2,14,0.96
2013-3-11,38.9,31.6,25.8,31.1,27.1,22.7,94,84,63,30.04,29.81,4,2,14,0.01
2013-3-12,51.7,35.8,22.4,31.9,25.6,21.2,97,71,37,30.32,30.02,6,2,14,0.00
2013-3-13,47.4,35.3,25.8,23.5,21.1,18.8,76,58,34,30.48,30.31,4,1,14,0.00
2013-3-14,71.2,50.6,28.3,42.2,32.2,20.6,77,52,33,30.41,30.06,8,2,15,0.00
2013-3-15,80.2,60.8,37.7,50.2,44.5,35.4,94,60,32,30.08,29.67,6,2,14,0.00
2013-3-16,69.0,49.6,38.0,48.2,41.2,35.7,92,74,48,30.00,29.66,6,3,14,0.12
2013-3-17,38.5,35.0,32.7,36.0,33.7,31.3,97,95,92,30.03,29.75,8,4,14,1.57
2013-3-18,54.4,41.9,35.5,41.6,33.9,25.7,98,77,38,30.07,29.72,6,1,14,0.00
2013-3-19,46.9,34.2,23.3,33.5,25.5,17.8,97,73,33,30.26,30.06,3,0,14,0.01
2013-3-20,39.6,31.6,21.8,28.9,18.8,8.5,98,65,30,30.35,30.17,6,2,14,0.00
2013-3-21,34.9,26.2,16.4,28.9,19.7,13.3,94,78,44,30.18,29.97,4,1,14,0.00
2013-3-22,34.9,32.6,30.3,34.1,31.3,28.8,97,95,93,30.01,29.96,3,1,14,0.12
2013-3-23,46.7,39.5,34.8,37.6,34.7,32.5,97,84,64,30.01,29.78,7,2,14,0.17
2013-3-24,39.1,32.2,27.9,37.1,30.8,24.8,97,94,88,30.03,29.63,7,1,14,0.11
2013-3-25,36.7,29.1,23.5,28.7,25.2,20.6,90,85,71,30.31,30.02,4,1,14,0.01
2013-3-26,42.2,32.0,20.4,27.7,24.2,18.6,94,74,51,30.42,30.31,3,1,14,0.11
2013-3-27,51.9,39.6,22.1,32.2,26.9,19.9,93,64,38,30.39,30.23,6,2,14,0.00
2013-3-28,65.3,53.4,44.2,43.6,37.9,31.0,72,56,42,30.27,30.12,4,2,14,0.00
2013-3-29,65.3,53.5,46.7,53.7,47.1,41.2,97,80,49,30.19,30.11,4,1,14,0.15
2013-3-30,58.0,51.2,46.2,51.9,47.7,42.5,97,88,79,30.13,29.86,5,1,14,0.23
2013-3-31,68.9,55.7,42.0,53.5,43.3,35.1,99,68,29,29.95,29.88,5,1,14,0.20
2013-4-1,50.8,43.5,37.9,38.1,29.3,20.3,90,60,33,30.25,29.93,5,2,14,0.00
2013-4-2,50.8,40.1,31.8,24.7,22.4,19.5,67,51,31,30.34,30.25,4,1,14,0.00
2013-4-3,54.1,43.2,30.6,27.8,23.7,21.8,71,47,33,30.37,30.21,7,2,14,0.00
2013-4-4,57.5,45.0,29.1,30.5,27.6,23.4,85,53,32,30.22,30.05,6,1,14,0.00
2013-4-5,71.8,51.7,28.5,39.8,33.9,26.0,92,57,29,30.18,29.95,4,1,14,0.00
2013-4-6,74.4,64.4,53.9,50.2,43.0,35.9,55,46,36,29.96,29.69,11,5,16,0.00
2013-4-7,77.9,65.1,49.9,57.1,50.4,43.7,92,62,31,29.87,29.66,8,2,14,0.21
2013-4-8,77.1,67.9,59.0,60.8,57.6,54.4,85,71,51,29.76,29.67,9,3,14,0.00
2013-4-9,75.6,69.3,63.8,63.5,60.5,57.7,82,74,65,29.79,29.68,6,3,14,0.00
2013-4-10,72.0,57.2,42.5,64.1,54.4,41.4,97,91,71,29.79,29.59,5,2,14,2.23
2013-4-11,44.8,39.4,35.5,41.4,34.6,31.1,96,84,62,29.79,29.71,4,2,8,0.01
2013-4-12,50.9,41.3,33.5,34.8,31.4,27.8,90,69,51,30.03,29.77,5,2,11,0.00
2013-4-13,69.8,51.8,29.7,44.7,37.6,28.4,97,63,37,30.09,29.80,5,2,9,0.00
2013-4-14,80.5,67.5,55.7,58.1,48.5,41.8,94,54,26,29.81,29.48,11,5,20,0.06
2013-4-15,65.6,55.3,48.2,60.8,51.6,44.1,97,88,75,29.91,29.66,6,2,12,0.10
2013-4-16,49.4,44.4,41.5,47.3,43.4,40.4,98,96,92,30.09,29.88,7,4,11,0.72
2013-4-17,84.2,66.3,45.3,71.4,59.2,44.6,100,81,56,30.08,29.59,9,4,16,0.00
2013-4-18,75.3,52.5,39.6,67.3,48.6,31.7,97,87,73,29.87,29.48,6,3,12,1.72
2013-4-19,53.9,43.0,35.2,32.0,27.8,23.0,81,58,31,30.09,29.85,6,3,17,0.00
2013-4-20,61.7,47.1,28.0,37.1,31.8,26.5,97,60,33,30.27,30.09,4,2,8,0.00
2013-4-21,69.4,58.2,48.7,42.2,38.5,32.9,67,49,33,30.31,30.13,7,2,10,0.00
2013-4-22,71.6,61.3,48.3,44.4,39.5,35.0,70,47,27,30.19,29.88,7,3,10,0.00
2013-4-23,61.2,46.5,36.8,50.2,42.5,35.6,96,88,55,30.10,29.86,4,2,8,0.97
2013-4-24,54.9,43.0,34.6,36.4,32.3,26.0,95,70,34,30.28,30.08,4,1,7,0.03
2013-4-25,69.0,52.9,34.7,41.6,35.4,30.1,84,55,29,30.35,30.21,5,1,8,0.00
2013-4-26,59.7,50.9,47.1,49.2,44.8,35.9,97,82,41,30.32,30.17,6,2,11,0.67
2013-4-27,52.2,49.3,47.1,51.2,48.7,46.3,98,98,96,30.22,29.98,4,1,7,0.63
2013-4-28,71.2,57.0,49.0,55.3,50.9,48.5,99,82,50,30.01,29.84,2,1,6,0.00
2013-4-29,86.8,71.4,53.5,62.9,57.1,49.9,90,64,38,29.87,29.67,7,2,12,0.00
2013-4-30,85.5,75.8,63.3,59.9,54.5,46.0,81,52,26,29.80,29.72,8,4,15,0.00
2013-5-3,37.5,35.2,32.9,35.9,33.6,31.9,96,94,92,30.01,29.90,3,1,9,0.48
2013-5-4,49.8,41.4,33.0,42.0,36.3,31.9,97,83,60,30.02,29.85,4,1,9,0.12
2013-5-5,60.3,51.1,40.1,53.5,47.3,39.1,97,87,73,30.05,29.95,3,1,9,0.10
2013-5-6,71.9,60.0,53.0,57.0,54.0,51.6,97,82,54,30.03,29.95,5,2,11,0.01
2013-5-7,80.0,63.4,46.4,58.8,51.3,45.8,99,70,35,30.03,29.94,4,1,9,0.00
2013-5-8,76.3,62.8,47.6,62.1,55.4,46.7,99,79,49,30.03,29.90,4,1,9,0.08
2013-5-9,67.9,64.8,61.4,61.0,58.5,57.4,94,80,72,29.93,29.85,4,1,9,0.09
2013-5-20,77.6,70.2,61.8,70.7,66.6,60.8,97,89,77,29.78,29.64,5,2,9,0.98
2013-5-21,73.5,66.1,59.3,65.5,62.3,58.3,98,88,70,29.77,29.63,5,1,9,0.00
2013-5-22,72.1,63.0,55.1,61.3,57.2,52.9,98,83,59,29.90,29.69,4,1,10,0.01
2013-5-23,70.6,60.2,49.5,58.4,54.4,49.0,99,82,65,30.18,29.89,5,1,9,0.00
2013-5-24,73.3,59.8,45.7,54.8,48.2,44.3,99,70,36,30.35,30.17,5,1,12,0.00
2013-5-25,79.9,67.5,53.7,67.8,56.9,43.8,86,69,62,30.22,30.02,3,1,4,0.00
2013-5-26,85.7,74.5,62.0,70.2,65.0,59.3,93,74,52,30.08,29.92,6,1,10,0.00
2013-5-27,80.6,73.3,66.2,72.4,67.1,62.8,94,81,71,29.96,29.68,6,2,11,0.19
2013-5-28,81.9,74.4,68.2,72.3,67.8,65.2,92,80,65,29.83,29.69,6,2,13,0.15
2013-5-29,84.3,75.9,66.1,70.0,66.5,63.4,92,74,59,29.85,29.69,6,2,13,0.00
2013-5-30,84.0,71.8,63.1,69.8,65.5,61.3,96,82,61,29.80,29.66,9,3,16,0.82
2013-5-31,84.6,70.6,63.1,75.2,67.2,62.1,98,90,71,29.81,29.63,7,1,12,0.78
2013-6-1,76.1,67.3,61.7,69.4,62.9,56.8,98,87,64,29.93,29.66,4,1,7,0.37
2013-6-2,64.2,59.9,49.9,58.2,55.5,48.8,96,86,78,30.02,29.91,2,0,4,0.00
2013-6-3,74.0,61.0,45.8,60.7,54.4,44.9,99,81,57,30.07,29.92,2,0,7,0.00
2013-6-4,76.0,65.1,55.1,65.0,59.7,53.6,96,83,67,30.00,29.90,4,1,6,0.00
2013-6-5,67.7,62.0,55.4,65.8,60.7,54.8,99,96,90,29.96,29.84,4,0,7,0.47
2013-6-6,74.6,63.4,52.4,67.2,59.3,52.1,100,88,63,29.92,29.85,3,0,7,0.01
2013-6-7,75.4,61.2,47.9,62.2,54.9,47.6,100,82,52,29.95,29.87,4,1,11,0.01
2013-6-8,80.6,65.9,46.5,63.2,56.4,45.8,100,75,47,29.94,29.81,3,1,8,0.00
2013-6-9,78.8,67.3,59.2,68.6,61.9,58.3,98,83,62,29.88,29.74,3,0,7,0.63
2013-6-10,85.3,69.7,53.9,68.5,62.3,53.6,100,80,49,29.87,29.78,3,0,6,0.01
2013-6-11,92.6,79.2,65.1,77.5,70.0,62.4,95,75,52,29.91,29.82,3,0,5,0.00
2013-6-12,92.6,83.8,74.2,76.3,72.3,66.9,85,69,52,29.86,29.74,8,3,14,0.00
2013-6-13,84.0,75.5,66.3,73.6,66.2,59.2,93,73,60,29.97,29.78,3,1,6,0.00
2013-6-14,86.8,74.8,60.5,71.5,66.5,59.4,97,78,56,30.02,29.90,4,1,7,0.00
2013-6-15,85.6,73.2,67.6,77.9,68.8,64.0,97,86,68,30.03,29.85,4,1,5,0.40
2013-6-16,87.4,75.0,66.5,79.7,72.4,66.2,99,92,73,29.95,29.84,5,1,7,0.50
2013-6-17,76.9,70.7,62.1,74.7,69.7,61.2,100,97,92,29.96,29.84,7,0,12,0.08
2013-6-18,87.2,68.1,57.1,76.9,65.8,57.1,100,94,59,29.99,29.90,10,0,16,0.75
2013-6-19,87.4,73.6,58.3,77.8,67.6,58.3,100,84,56,30.02,29.94,2,0,4,0.01
2013-6-20,88.4,78.4,65.8,73.3,69.9,64.5,98,77,56,30.04,29.93,5,1,12,0.00
2013-6-21,90.5,81.8,73.8,79.8,74.4,69.3,87,79,65,30.01,29.92,4,1,9,0.00
2013-6-22,92.0,81.9,72.2,79.2,74.1,68.7,95,78,59,30.01,29.87,5,2,7,0.00
2013-6-23,89.9,78.2,71.6,78.9,72.7,68.1,91,84,65,29.96,29.85,5,1,9,0.12
2013-6-24,91.3,81.9,71.2,77.2,73.9,69.7,96,78,58,29.99,29.85,6,2,9,0.00
2013-6-25,89.7,82.5,75.0,78.2,73.2,69.4,83,74,64,29.89,29.73,6,2,9,0.00
2013-6-26,94.8,84.3,76.4,79.1,74.1,69.4,89,72,58,29.81,29.72,5,1,7,0.00
2013-6-27,96.1,80.7,69.7,84.6,64.5,23.7,88,62,14,29.91,29.77,5,0,5,0.01
2013-6-28,88.3,76.1,65.9,74.6,18.3,-37.7,67,29,1,29.92,29.76,8,0,10,0.52
2013-6-29,83.9,72.0,59.6,65.2,16.8,-41.6,59,30,1,29.78,29.69,7,1,14,0.00
2013-6-30,77.9,69.2,64.1,61.9,5.5,-38.8,58,22,1,29.94,29.77,4,1,6,0.01
2013-7-1,81.6,70.9,60.0,63.1,16.0,-41.3,56,30,1,30.00,29.93,3,1,11,0.00
2013-7-2,81.3,67.1,54.3,59.8,3.2,-44.8,53,23,1,30.05,29.98,4,1,10,0.00
2013-7-3,85.5,70.9,55.3,63.0,5.4,-44.2,53,21,1,30.08,29.96,1,0,4,0.00
2013-7-4,87.7,70.5,57.5,65.9,-2.6,-42.8,53,18,1,30.04,29.95,7,0,7,0.53
2013-7-5,88.1,74.4,59.1,67.3,17.6,-41.9,52,27,1,30.02,29.92,4,0,6,0.01
2013-7-6,91.2,76.9,65.8,70.7,5.4,-37.8,54,19,1,29.98,29.89,3,0,4,0.00
2013-7-7,92.2,81.0,67.5,71.9,18.2,-36.7,52,24,1,30.00,29.92,4,1,7,0.00
2013-7-8,91.0,80.9,72.2,69.2,5.9,-33.9,51,15,1,30.04,29.97,3,0,8,0.00
2013-7-9,94.8,84.1,73.4,73.4,7.6,-33.2,51,17,1,30.01,29.86,5,1,11,0.00
2013-7-10,93.8,80.8,70.2,69.6,-20.2,-35.1,46,4,1,29.96,29.87,3,0,8,0.48
2013-7-11,86.0,75.9,67.7,65.9,1.6,-36.6,53,18,1,30.02,29.93,3,1,6,0.00
2013-7-12,85.6,73.7,62.7,64.7,10.9,-39.7,52,24,1,30.06,29.96,4,1,8,0.00
2013-7-13,84.9,73.0,58.9,59.4,-12.4,-42.0,45,10,1,30.06,29.93,2,0,5,0.00
2013-7-14,87.4,76.1,60.8,65.3,6.5,-40.8,48,19,1,30.07,29.99,4,1,7,0.00
2013-7-15,90.0,77.3,67.9,66.4,-9.5,-36.5,46,10,1,30.16,30.06,3,0,10,0.00
2013-7-16,93.0,80.2,69.8,67.8,-8.8,-35.3,47,10,1,30.24,30.15,3,0,7,0.00
2013-7-17,95.8,83.3,69.9,70.8,6.1,-35.3,46,16,1,30.29,30.13,1,0,4,0.00
2013-7-18,98.2,84.3,69.8,71.9,7.3,-35.3,45,16,1,30.18,29.96,4,0,6,0.00
2013-7-19,97.8,84.5,73.2,73.1,8.4,-33.3,47,17,1,29.99,29.82,3,0,6,0.00
2013-7-20,95.2,81.6,73.3,70.2,0.5,-33.2,47,14,1,29.88,29.78,3,1,7,0.00
2013-7-21,87.4,75.7,69.2,45.3,-25.7,-35.7,24,3,1,29.90,29.79,2,0,4,0.29
2013-7-22,92.3,79.1,66.3,62.9,-4.7,-37.5,41,10,1,29.84,29.73,4,0,10,0.01
2013-7-23,94.0,81.2,71.2,65.3,-8.9,-34.5,40,8,1,29.85,29.73,3,0,5,0.00
2013-7-24,85.8,75.6,68.5,63.1,2.8,-36.1,48,18,1,30.00,29.83,2,0,8,0.00
2013-7-25,87.3,73.6,57.5,62.1,12.2,-42.8,46,21,1,30.09,29.99,2,0,6,0.00
2013-7-26,74.6,71.0,66.1,-32.4,-34.6,-37.6,1,1,1,30.03,29.95,1,0,4,0.65
2013-7-27,78.2,67.6,56.4,56.9,-5.2,-43.5,49,17,1,30.04,29.94,3,1,9,0.00
2013-7-28,76.0,64.7,55.3,40.1,-15.8,-44.2,29,8,1,30.03,29.96,2,0,6,0.00
2013-7-29,78.6,72.4,65.6,-30.0,-33.8,-37.9,1,1,1,30.10,30.00,5,2,7,0.23
2013-7-30,84.8,75.6,69.0,-26.3,-31.9,-35.8,1,1,1,30.02,29.93,2,0,5,0.80
2013-7-31,85.4,76.3,65.4,50.3,-16.8,-38.0,31,6,1,30.04,29.96,4,0,7,0.00
2013-8-1,89.6,73.6,60.8,66.1,-6.4,-40.8,48,13,1,30.08,29.94,2,0,5,0.03
2013-8-2,79.1,72.9,67.5,-29.7,-33.5,-36.7,1,1,1,29.96,29.85,6,1,11,0.35
2013-8-3,84.3,76.2,70.3,-26.8,-31.5,-35.0,1,1,1,30.07,29.85,4,1,7,0.97
2013-8-4,74.4,70.8,68.3,-32.6,-34.7,-36.2,1,1,1,30.14,30.01,3,1,5,0.49
2013-8-5,85.7,74.3,68.9,1.0,-32.4,-35.9,4,1,1,30.04,29.81,3,1,6,0.75
2013-8-6,86.3,75.9,69.6,-4.5,-31.5,-35.5,3,1,1,29.89,29.77,5,1,6,0.39
2013-8-7,85.8,76.7,71.2,49.6,-23.6,-34.5,29,3,1,29.91,29.75,6,1,8,2.29
2013-8-8,82.1,74.8,71.1,-6.8,-32.0,-34.5,3,1,1,29.95,29.84,3,1,5,0.01
2013-8-9,74.3,70.8,65.6,26.2,-33.8,-37.9,17,1,1,30.04,29.91,3,0,8,2.91
2013-8-10,83.7,74.5,67.3,57.6,-7.9,-36.9,42,11,1,30.14,30.03,3,1,7,0.01
2013-8-11,87.5,74.6,61.1,63.2,-5.4,-40.6,45,12,1,30.10,29.99,2,0,6,0.00
2013-8-12,83.2,75.2,68.1,57.1,-22.4,-36.4,41,4,1,30.02,29.90,2,0,5,0.02
2013-8-13,80.4,71.3,62.6,59.6,-2.0,-39.7,50,16,1,30.08,29.95,4,1,6,0.00
2013-8-14,76.1,66.4,56.6,56.6,1.5,-43.4,54,23,1,30.16,30.06,3,1,6,0.01
2013-8-15,75.5,64.0,53.4,56.1,-3.7,-45.4,52,20,1,30.13,30.02,2,0,5,0.00
2013-8-16,73.6,64.3,56.6,55.1,-4.3,-43.4,54,19,1,30.13,30.05,2,0,5,0.00
2013-8-17,79.2,66.2,54.1,57.8,-6.6,-44.9,48,15,1,30.16,30.06,3,0,8,0.00
2013-8-18,81.9,69.1,56.6,57.2,-8.4,-43.4,43,12,1,30.14,30.04,3,0,5,0.00
2013-8-19,86.5,72.7,59.5,64.2,-1.8,-41.6,48,16,1,30.09,29.98,2,0,3,0.00
2013-8-20,87.9,74.2,61.8,65.2,-2.5,-40.2,48,15,1,30.07,29.98,3,0,6,0.00
2013-8-21,89.4,75.4,63.8,65.9,-3.4,-39.0,46,14,1,30.08,29.99,3,0,6,0.00
2013-8-22,91.5,78.1,67.3,69.5,3.3,-36.9,50,17,1,30.08,29.98,1,0,5,0.00
2013-8-23,91.8,77.9,66.9,66.8,-3.5,-37.1,45,12,1,30.06,29.97,2,0,3,0.00
2013-8-24,90.9,78.8,69.2,69.5,5.3,-35.7,51,17,1,30.13,30.02,3,0,8,0.00
2013-8-25,91.6,78.5,66.0,69.8,2.6,-37.6,50,16,1,30.20,30.09,1,0,6,0.00
2013-8-26,92.6,79.8,69.6,70.8,1.1,-35.5,50,15,1,30.17,30.04,2,0,7,0.00
2013-8-27,91.4,78.8,68.4,73.0,32.0,-99.9,96,43,1,30.06,29.96,2,0,7,0.06
2013-8-28,91.8,77.5,64.1,73.8,69.5,63.6,99,79,49,30.02,29.96,2,0,6,0.00
2013-8-29,94.5,80.4,66.1,77.9,72.1,65.8,99,79,50,30.02,29.92,2,0,3,0.00
2013-8-30,95.8,82.9,72.9,76.3,73.0,70.4,96,75,45,29.93,29.80,3,0,10,0.00
2013-8-31,96.6,82.3,71.1,77.6,72.9,69.7,97,76,44,29.83,29.72,3,0,6,0.00
2013-9-1,87.8,76.4,69.0,75.3,71.9,67.0,99,87,54,29.87,29.72,7,0,8,0.11
2013-9-2,84.3,73.2,61.3,71.2,63.7,59.4,98,75,47,29.96,29.84,3,1,11,0.00
2013-9-3,84.3,68.3,54.4,64.2,58.8,54.0,99,76,39,30.06,29.94,2,0,4,0.00
2013-9-4,87.4,69.2,52.7,63.9,58.8,52.3,99,75,38,30.13,30.03,2,0,5,0.00
2013-9-5,86.8,70.6,55.0,67.5,60.8,54.6,99,75,42,30.18,30.08,2,0,4,0.00
2013-9-6,87.2,73.1,60.6,67.0,62.3,57.1,98,72,37,30.12,29.98,2,0,5,0.00
2013-9-7,93.8,77.2,62.6,69.8,65.2,59.6,97,70,39,30.00,29.86,2,0,6,0.00
2013-9-8,91.0,79.6,68.8,74.0,69.0,64.8,88,71,52,29.94,29.82,5,1,8,0.00
2013-9-9,95.8,81.2,69.2,71.0,67.5,61.4,94,67,33,29.93,29.85,4,0,9,0.00
2013-9-10,95.0,78.7,66.8,69.3,65.0,60.6,95,68,33,30.05,29.92,3,0,10,0.00
2013-9-11,94.5,77.6,62.2,72.5,66.5,61.3,98,73,40,30.10,29.99,1,0,4,0.00
2013-9-12,86.4,75.1,67.1,71.6,67.0,49.4,97,77,46,30.06,29.97,3,0,7,0.00
2013-9-13,78.6,67.8,56.1,54.0,50.4,47.8,81,55,37,30.11,30.00,4,1,7,0.00
2013-9-14,78.9,63.7,45.5,54.4,48.4,44.0,97,61,31,30.11,29.97,3,1,7,0.00
2013-9-15,88.2,71.9,58.6,68.6,57.6,48.9,93,63,41,30.06,29.94,3,1,7,0.03
2013-9-16,70.3,63.5,60.9,66.3,62.0,59.6,98,95,87,30.19,30.04,3,1,7,0.05
2013-9-17,72.0,66.6,61.8,68.7,64.9,60.3,97,94,88,30.17,29.99,2,0,6,0.53
2013-9-18,85.8,73.6,67.6,72.9,69.1,65.5,94,86,62,30.00,29.88,3,0,7,0.08
2013-9-19,90.1,78.9,71.7,73.5,69.1,66.7,90,73,54,29.93,29.78,5,1,8,0.08
2013-9-20,72.5,65.3,53.0,68.3,61.6,52.2,98,89,63,29.94,29.84,2,0,7,0.68
2013-9-21,73.1,57.9,47.4,55.7,49.7,44.6,99,79,37,30.01,29.90,3,0,7,0.01
2013-9-22,76.1,58.8,41.3,55.9,49.8,41.0,99,77,40,30.00,29.88,2,0,6,0.00
2013-9-23,78.1,62.8,48.1,56.6,52.8,47.6,99,73,42,29.95,29.82,5,1,14,0.01
2013-9-24,79.6,68.5,59.9,62.6,58.2,54.3,89,71,48,29.89,29.75,3,0,6,0.00
2013-9-25,78.3,65.3,53.8,65.1,60.7,53.2,99,86,62,29.86,29.77,2,0,5,0.00
2013-9-26,83.3,69.8,57.4,66.5,62.4,56.8,99,80,52,29.94,29.83,5,1,10,0.00
2013-9-27,84.8,73.4,64.1,68.9,64.3,61.8,94,75,49,30.00,29.89,4,1,9,0.00
2013-9-28,78.5,68.7,59.4,70.3,64.2,57.8,96,86,66,30.02,29.88,7,1,10,0.14
2013-9-29,73.5,61.0,50.5,58.1,54.3,50.0,99,81,48,30.07,29.94,4,0,8,0.00
2013-9-30,79.4,64.5,49.2,67.0,59.2,48.8,99,85,55,29.95,29.83,3,0,5,0.00
2013-10-1,84.4,71.5,62.9,69.6,65.1,61.6,99,83,52,29.96,29.87,2,0,6,0.01
2013-10-2,82.4,71.1,62.9,72.7,68.1,62.1,99,91,69,30.00,29.88,5,0,6,0.31
2013-10-3,84.3,74.8,66.9,71.9,68.8,65.4,96,83,64,29.91,29.78,6,1,10,0.01
2013-10-4,86.8,75.9,68.1,72.0,68.8,66.9,96,80,55,29.88,29.80,5,1,8,0.00
2013-10-5,74.8,59.0,48.1,69.6,57.1,47.0,98,94,81,29.96,29.82,6,1,7,1.00
2013-10-6,58.0,51.2,42.4,48.0,44.1,40.9,97,78,57,29.96,29.86,3,1,12,0.01
2013-10-7,70.2,55.6,46.1,51.9,47.9,44.2,98,78,43,30.13,29.95,2,0,4,0.00
2013-10-8,75.1,57.5,41.5,55.1,48.8,41.2,99,77,41,30.16,30.06,5,1,8,0.00
2013-10-9,74.8,58.1,43.3,55.4,50.1,43.0,99,79,41,30.13,30.03,3,0,5,0.01
2013-10-10,77.8,62.1,49.3,59.3,54.4,48.8,99,80,43,30.10,29.93,4,0,9,0.00
2013-10-11,79.8,68.0,57.6,64.7,60.5,56.1,95,78,58,29.94,29.81,5,1,9,0.01
2013-10-12,71.7,62.1,45.6,62.3,55.1,45.1,98,80,46,30.19,29.86,3,0,6,0.13
2013-10-13,72.0,54.4,42.3,49.1,44.9,41.0,99,76,34,30.39,30.18,3,0,11,0.01
2013-10-14,67.0,58.5,47.5,60.5,49.1,39.3,95,72,55,30.30,29.94,3,1,8,0.04
2013-10-15,63.3,58.7,48.5,61.4,55.9,45.0,98,91,76,30.03,29.85,2,0,8,0.56
2013-10-16,58.3,48.5,37.2,47.1,43.6,36.7,99,84,61,30.09,29.98,3,0,6,0.01
2013-10-17,65.1,52.4,43.8,49.5,45.4,41.2,98,80,44,30.02,29.92,3,0,7,0.01
2013-10-18,57.6,46.7,38.5,45.7,41.5,38.0,98,84,56,30.10,29.96,3,0,8,0.18
2013-10-19,58.7,45.2,36.9,43.6,38.9,35.6,97,81,49,30.09,29.97,3,1,7,0.03
2013-10-20,69.9,55.0,44.7,44.6,41.2,38.1,81,62,32,29.98,29.84,5,1,12,0.00
2013-10-21,57.5,47.3,33.1,44.3,40.2,32.3,97,78,47,30.09,29.91,3,0,8,0.00
2013-10-22,66.0,48.4,32.1,46.5,38.7,31.5,99,72,46,30.08,29.85,4,1,10,0.00
2013-10-23,52.8,43.7,32.1,40.5,34.9,30.7,97,73,46,30.18,30.03,2,0,5,0.00
2013-10-24,52.1,42.3,28.9,38.4,31.3,24.9,95,68,36,30.44,30.11,4,1,8,0.00
2013-10-25,56.9,40.9,22.8,34.5,26.9,21.6,98,63,28,30.53,30.21,3,1,6,0.00
2013-10-26,66.9,52.0,42.0,48.6,38.0,29.1,75,60,45,30.22,30.04,5,1,10,0.00
2013-10-27,65.9,43.6,26.5,36.7,31.4,25.5,98,69,24,30.14,29.98,2,0,5,0.00
2013-10-28,71.0,50.5,31.7,56.5,43.7,30.8,99,81,39,30.19,30.03,4,0,8,0.00
2013-10-29,64.5,59.0,53.4,63.0,57.2,49.0,97,94,82,30.17,29.96,6,1,9,1.29
2013-10-30,72.2,66.3,63.6,66.2,63.2,59.6,97,90,79,30.00,29.73,6,2,10,0.08
2013-10-31,65.1,57.3,46.8,62.4,55.7,46.3,99,95,85,29.76,29.42,5,1,10,0.75
2013-11-1,64.8,50.9,40.5,47.5,43.7,39.7,99,80,44,29.92,29.64,5,1,11,0.01
2013-11-2,55.7,44.5,33.1,43.6,39.1,32.3,98,83,52,30.21,29.92,4,1,9,0.00
2013-11-3,60.7,46.4,28.3,42.4,35.9,27.8,99,70,42,30.26,30.04,6,2,12,0.01
2013-11-4,65.4,55.2,48.4,51.1,45.2,39.6,94,70,55,30.16,30.01,8,3,15,0.01
2013-11-5,59.6,56.5,52.8,57.6,54.6,50.3,96,93,88,30.16,29.91,6,2,12,0.45
2013-11-6,61.8,45.2,32.3,59.3,42.0,31.5,98,89,78,30.33,29.86,6,1,10,0.79
2013-11-7,60.5,41.3,28.6,41.7,33.4,28.1,99,77,37,30.42,30.32,5,1,10,0.01
2013-11-8,65.0,48.7,28.0,39.3,34.4,27.3,98,62,34,30.37,30.02,7,3,13,0.00
2013-11-9,67.7,53.6,38.6,43.8,39.8,37.0,95,62,35,30.26,30.05,5,1,9,0.00
2013-11-10,63.5,47.2,35.2,39.5,33.1,25.9,98,63,24,30.41,30.24,4,0,6,0.00
2013-11-11,63.2,51.3,32.3,52.1,41.4,26.4,94,70,56,30.51,30.14,7,2,12,0.07
2013-11-12,37.2,28.5,17.4,26.4,18.2,13.5,93,67,40,30.81,30.49,6,2,13,0.00
2013-11-13,51.2,32.9,14.3,24.5,15.1,10.7,95,56,20,30.74,30.30,4,1,9,0.00
2013-11-14,58.1,44.0,24.6,26.0,19.5,15.1,75,41,19,30.32,30.02,5,1,11,0.00
2013-11-15,58.7,50.7,45.3,48.5,38.9,25.2,85,65,44,30.03,29.84,7,2,10,0.00
2013-11-16,70.4,62.4,52.9,61.2,55.9,47.9,88,80,64,29.85,29.51,10,5,16,0.05
2013-11-17,74.6,65.0,50.1,63.5,40.8,16.8,83,47,17,30.00,29.39,11,4,20,0.00
2013-11-18,59.1,44.9,32.0,39.2,30.7,25.0,92,61,29,30.29,29.98,4,1,7,0.00
2013-11-19,59.7,46.2,30.0,32.2,26.4,19.5,91,51,25,30.30,30.10,5,2,10,0.00
2013-11-20,54.9,49.0,39.5,35.9,29.8,18.9,84,49,33,30.11,29.92,5,2,8,0.05
2013-11-21,54.1,51.3,43.1,50.4,45.0,33.1,98,82,47,30.26,29.97,3,0,7,0.39
2013-11-22,48.4,32.6,31.1,40.5,30.6,28.5,96,92,88,30.58,30.22,5,2,8,0.01
2013-11-23,34.3,28.0,17.4,29.0,18.7,8.8,90,69,45,30.76,30.56,5,2,10,0.00
2013-11-24,30.1,21.3,12.7,15.5,3.8,-99.9,85,58,42,30.77,30.42,3,-65,5,0.00
2013-11-25,35.1,32.7,30.2,28.7,20.3,10.3,80,61,42,30.43,30.19,3,1,7,0.00
2013-11-26,42.7,32.6,23.8,31.6,23.5,12.4,95,70,57,30.36,30.13,6,2,12,0.00
2013-11-27,34.6,25.0,17.7,15.2,12.5,10.6,75,60,39,30.45,30.30,3,1,7,0.00
2013-11-28,50.7,36.2,26.3,26.6,21.0,13.8,83,55,38,30.49,30.25,4,1,8,0.00
2013-11-29,57.1,38.1,24.2,31.0,17.3,-99.9,85,55,35,30.54,30.32,3,-78,8,0.00
2013-11-30,61.9,41.6,36.0,41.6,18.9,-99.9,95,59,47,30.34,30.07,6,-130,11,0.00
2013-12-1,62.6,40.2,30.0,47.6,22.1,-99.9,98,72,53,30.12,29.88,2,-132,4,0.00
2013-12-2,58.1,41.0,38.3,47.4,25.0,-99.9,100,77,67,29.89,29.65,4,-130,7,0.00
2013-12-3,62.7,50.7,39.3,52.5,46.8,38.4,99,87,62,29.66,29.55,5,1,9,0.01
2013-12-4,64.9,42.6,31.1,52.3,24.9,-99.9,97,72,57,29.94,29.52,6,-127,12,0.00
2013-12-5,31.7,19.8,20.7,26.4,-4.7,-99.9,87,59,60,30.35,29.92,4,-181,8,0.00
2013-12-6,21.7,15.2,14.3,15.4,-9.6,-99.9,88,58,59,30.66,30.33,4,-182,9,0.00
2013-12-7,23.2,14.9,9.7,11.0,-12.1,-99.9,74,51,52,30.75,30.43,5,-178,9,0.00
2013-12-8,27.9,20.1,18.0,26.7,1.6,-99.9,95,74,71,30.46,30.05,4,-159,12,0.00
2013-12-9,27.9,18.6,19.6,25.9,-4.7,-99.9,92,63,64,30.40,30.15,2,-182,6,0.00
2013-12-10,39.4,21.6,13.7,18.2,-3.6,-99.9,83,53,41,30.40,30.29,3,-153,6,0.00
2013-12-11,35.9,21.1,12.3,23.5,-3.4,-99.9,91,54,40,30.67,30.32,4,-145,9,0.00
2013-12-12,45.4,24.8,8.1,21.3,-2.3,-99.9,87,50,30,30.67,30.28,4,-150,9,0.00
2013-12-13,36.2,27.7,27.9,34.5,6.6,-99.9,96,71,57,30.30,29.89,4,-180,6,0.25
2013-12-14,33.8,30.3,26.9,32.8,28.6,23.5,98,93,86,30.24,29.85,4,1,10,0.02
2013-12-15,47.7,35.5,21.1,35.9,28.8,19.6,94,77,60,30.24,30.03,5,1,9,0.13
2013-12-16,61.2,46.6,32.7,36.9,33.4,29.5,89,62,38,30.14,29.99,4,1,8,0.00
2013-12-17,52.8,36.1,24.7,34.0,26.9,21.8,97,73,39,30.32,30.12,4,1,9,0.00
2013-12-18,61.8,45.0,23.1,38.2,30.1,20.8,92,59,35,30.32,29.90,9,3,14,0.00
2013-12-19,57.5,55.1,51.0,51.7,45.9,37.4,82,71,61,29.90,29.70,7,3,13,0.00
2013-12-20,59.1,43.3,30.4,55.4,40.4,28.9,95,90,80,29.89,29.67,5,1,8,0.06
2013-12-21,32.5,31.7,30.3,31.6,30.6,28.8,97,96,94,29.87,29.56,1,0,6,0.01
2013-12-22,32.6,28.5,23.0,31.8,26.9,20.2,97,94,88,30.38,29.66,0,0,6,0.00
2013-12-23,23.5,16.8,10.7,20.1,14.1,8.0,95,89,84,30.67,30.36,0,0,6,0.00
2013-12-24,31.4,19.6,5.8,25.9,15.5,3.5,91,84,76,30.67,30.31,0,0,6,0.00
2013-12-25,34.1,30.2,25.6,32.3,28.3,20.7,98,93,84,30.38,30.31,1,0,6,0.00
2013-12-26,51.0,34.8,19.0,36.4,27.4,17.8,98,77,43,30.40,30.26,6,1,12,0.01
2013-12-27,59.7,42.7,29.7,35.7,30.5,25.8,88,64,38,30.40,30.26,3,0,6,0.00
2013-12-28,59.6,45.9,35.9,35.4,30.1,26.1,76,56,31,30.28,29.92,6,1,10,0.00
2013-12-29,42.7,26.7,15.1,32.3,19.3,4.1,87,74,60,30.33,29.90,5,2,8,0.00
2013-12-30,32.9,19.8,6.9,17.1,8.3,3.8,90,64,33,30.38,30.26,3,0,7,0.00
2013-12-31,57.1,37.6,18.4,27.3,21.4,15.0,87,55,30,30.41,30.15,6,2,11,0.00
2014-1-1,44.5,33.7,16.5,30.1,23.6,12.8,88,67,52,30.19,29.95,5,2,11,0.00
2014-1-2,23.1,14.6,4.5,12.8,6.4,-0.5,87,70,51,30.55,30.16,5,1,9,0.14